Flag for Brazil Weather past 2 weeks in Foz do Iguaçu, Paraná, Brazil

Now
66 °F

Passing clouds.


Feels Like: 66 °F
Forecast: N/A
Wind: 7 mph from South

Location: Foz Do Iguacu Aeroporto

Current Time: Jul 30, 2014 at 7:32:27 PM

Latest Report: Jul 30, 2014 at 6:00 PM


Visibility: N/A

Pressure: 30.12 "Hg

Humidity: 83%

Dew point: 61 °F

Location of Foz do IguaçuLocation

Historic Weather in Foz do Iguaçu — Graph

°F

Foz do Iguaçu temperature yesterday

Maximum temperature yesterday: 79 °F (at 2:00 PM)
Minimum temperature yesterday: 59 °F (at 5:00 AM)
Average temperature yesterday: 68 °F

Past Weeks' High & Low Weather Summary

 TemperatureHumidityPressure
High82 °F (Jul 22, 2:00 PM)100% (Jul 17, 2:00 PM)30.33 "Hg (Jul 17, 2:00 PM)
Low41 °F (Jul 19, 8:00 AM)36% (Jul 21, 3:00 PM)29.65 "Hg (Jul 23, 5:00 PM)
Average61 °F81%30.11 "Hg
* Reported Jul 15 6:00 PM — Jul 30 6:00 PM, Foz do Iguaçu, Weather by CustomWeather, © 2014

Note: Actual official high and low records may vary slightly from our data, if they occured in-between our weather recording intervals... More about our weather records

Advertising

Foz do Iguaçu weather history for previous 24 hours

 ConditionsComfort  
Time TempWeatherWind HumidityBarometerVisibility
6:00 PM
Jul 30
66 °FPassing clouds.7 mph83%30.12 "HgN/A
5:00 PM68 °FPartly sunny.7 mph83%30.12 "HgN/A
4:00 PM70 °FPartly sunny.9 mph73%30.12 "HgN/A
3:00 PM72 °FBroken clouds.9 mph73%30.12 "HgN/A
2:00 PM73 °FScattered clouds.9 mph69%30.15 "HgN/A
1:00 PM72 °FScattered clouds.6 mph73%30.15 "HgN/A
12:00 PM70 °FScattered clouds.6 mph69%30.18 "HgN/A
11:00 AM68 °FSunny.9 mph73%30.18 "Hg10 mi
10:00 AM64 °FSunny.12 mph78%30.18 "Hg10 mi
9:00 AM63 °FSunny.9 mph83%30.18 "Hg10 mi
8:00 AM61 °FSunny.9 mph88%30.18 "Hg10 mi
7:00 AM61 °FSunny.9 mph88%30.18 "Hg10 mi
6:00 AM63 °FClear.9 mph83%30.15 "Hg10 mi
5:00 AM63 °FClear.8 mph83%30.15 "Hg10 mi
3:00 AM64 °FClear.9 mph83%30.18 "Hg10 mi
2:00 AM64 °FClear.13 mph83%30.18 "Hg10 mi
1:00 AM66 °FClear.12 mph78%30.18 "Hg10 mi
12:00 AM68 °FClear.12 mph73%30.18 "Hg10 mi
11:00 PM
Jul 29
68 °FClear.10 mph78%30.18 "Hg10 mi
10:00 PM70 °FClear.10 mph73%30.18 "Hg10 mi
9:00 PM72 °FClear.9 mph69%30.18 "Hg10 mi
8:00 PM73 °FClear.5 mph65%30.18 "Hg10 mi
7:00 PM72 °FClear.5 mph69%30.15 "Hg10 mi
Weather by CustomWeather, © 2014

See weather overviewHow to use our weather pages